Home   Weather   Big Bear Lake   Past weeks
Flag for USA

Past Weather in Big Bear Lake, California, USA — Yesterday and Last 2 Weeks

Now
63 °F

Sunny.


Feels Like: 63 °F
Forecast: 64 / 36 °F
Wind: 12 mph from Northeast

Location: Big Bear City Airport

Current Time: Oct 15, 2019 at 5:26:46 pm

Latest Report: Oct 15, 2019 at 4:35 pm


Visibility: 10 mi

Pressure: 30.23 "Hg (23.72 "Hg at 2058m altitude)

Humidity: 20%

Dew Point: 21 °F

Location of Big Bear LakeLocation

Past Weather in Big Bear Lake — Graph

°F

Big Bear Lake Temperature Yesterday

Maximum temperature yesterday: 57 °F (at 2:35 pm)
Minimum temperature yesterday: 25 °F (at 6:15 am)
Average temperature yesterday: 39 °F

High & Low Weather Summary for the Past Weeks

 TemperatureHumidityPressure
High70 °F (Oct 4, 1:35 pm)65% (Oct 8, 8:15 am)30.34 "Hg (Oct 8, 8:15 am)
Low21 °F (Oct 2, 4:15 am)4% (Oct 4, 11:15 am)29.90 "Hg (Oct 1, 3:15 am)
Average44 °F30%30.14 "Hg
* Reported Sep 30 4:15 pm — Oct 15 4:15 pm, Big Bear Lake. Weather by CustomWeather, © 2019

Note: Actual official high and low records may vary slightly from our data, if they occured in-between our weather recording intervals... More about our weather records

Advertising

Big Bear Lake Weather History for the Previous 24 Hours

Scroll right to see more
 ConditionsComfort  
Time TempWeatherWind HumidityBarometerVisibility
4:15 pm
Tue, Oct 15
63 °FDense fog.10 mph19%30.23 "Hg1 mi
3:55 pm63 °FSunny.10 mph19%30.23 "Hg10 mi
3:35 pm63 °FSunny.9 mph19%30.23 "Hg10 mi
3:15 pm63 °FSunny.12 mph17%30.23 "Hg10 mi
2:55 pm63 °FSunny.10 mph20%30.23 "Hg10 mi
2:35 pm63 °FSunny.12 mph19%30.24 "Hg10 mi
2:15 pm63 °FSunny.12 mph19%30.24 "Hg10 mi
1:35 pm63 °FSunny.13 mph20%30.25 "Hg10 mi
1:15 pm63 °FSunny.12 mph20%30.26 "Hg10 mi
12:55 pm63 °FSunny.13 mph16%30.27 "Hg10 mi
12:35 pm63 °FSunny.14 mph15%30.27 "Hg10 mi
12:15 pm61 °FSunny.8 mph16%30.27 "Hg10 mi
11:35 am61 °FSunny.9 mph20%30.27 "Hg5 mi
11:15 am59 °FSunny.9 mph21%30.28 "Hg10 mi
10:55 am59 °FSunny.12 mph21%30.28 "Hg10 mi
10:35 am57 °FSunny.10 mph25%30.28 "Hg10 mi
10:15 am55 °FSunny.9 mph26%30.28 "Hg10 mi
9:55 am55 °FSunny.10 mph31%30.28 "Hg10 mi
9:35 am55 °FSunny.12 mph31%30.28 "Hg10 mi
9:15 am54 °FSunny.12 mph35%30.28 "Hg10 mi
8:55 am48 °FSunny.8 mph46%30.27 "Hg10 mi
8:35 am39 °FSunny.No wind48%30.27 "Hg10 mi
8:15 am34 °FSunny.No wind65%30.27 "Hg10 mi
7:55 am32 °FSunny.No wind64%30.26 "Hg10 mi
7:35 am30 °FSunny.No wind64%30.25 "Hg10 mi
7:15 am28 °FSunny.No wind64%30.24 "Hg10 mi
6:55 am28 °FSunny.No wind59%30.24 "Hg10 mi
6:35 am28 °FClear.No wind59%30.23 "Hg10 mi
5:55 am28 °FClear.5 mph55%30.23 "Hg10 mi
5:35 am28 °FClear.3 mph59%30.22 "Hg10 mi
5:15 am28 °FClear.8 mph64%30.22 "Hg10 mi
4:55 am28 °FClear.No wind55%30.22 "Hg10 mi
4:35 am28 °FClear.5 mph51%30.21 "Hg10 mi
3:55 am28 °FClear.5 mph51%30.21 "Hg10 mi
3:35 am28 °FClear.3 mph51%30.20 "Hg10 mi
3:15 am28 °FClear.3 mph51%30.20 "Hg10 mi
2:55 am28 °FClear.No wind51%30.21 "Hg10 mi
2:35 am28 °FClear.No wind47%30.21 "Hg10 mi
2:15 am28 °FClear.No wind47%30.21 "Hg10 mi
1:55 am28 °FClear.No wind47%30.21 "Hg10 mi
1:35 am28 °FClear.No wind47%30.21 "Hg10 mi
1:15 am28 °FClear.No wind47%30.20 "Hg10 mi
12:55 am28 °FClear.No wind51%30.20 "Hg10 mi
12:35 am30 °FClear.No wind47%30.20 "Hg10 mi
12:15 am30 °FClear.No wind47%30.20 "Hg10 mi
11:55 pm
Mon, Oct 14
30 °FClear.No wind47%30.19 "Hg10 mi
11:35 pm30 °FClear.No wind47%30.19 "Hg10 mi
11:15 pm30 °FClear.No wind51%30.19 "Hg10 mi
10:55 pm30 °FClear.No wind51%30.19 "Hg10 mi
10:35 pm32 °FClear.No wind47%30.19 "Hg10 mi
10:15 pm32 °FClear.No wind47%30.18 "Hg10 mi
9:55 pm32 °FClear.No wind47%30.18 "Hg10 mi
9:35 pm32 °FClear.No wind47%30.17 "Hg10 mi
9:15 pm34 °FClear.No wind44%30.17 "Hg10 mi
8:55 pm34 °FClear.No wind44%30.16 "Hg10 mi
8:35 pm36 °FClear.No wind41%30.16 "Hg10 mi
8:15 pm36 °FClear.No wind41%30.15 "Hg10 mi
7:35 pm41 °FClear.No wind36%30.14 "Hg10 mi
7:15 pm43 °FClear.No wind34%30.13 "Hg10 mi
6:55 pm45 °FClear.No wind34%30.12 "Hg10 mi
6:35 pm46 °FClear.No wind32%30.12 "Hg10 mi
6:15 pm52 °FClear.No wind26%30.11 "Hg10 mi
5:35 pm54 °FSunny.6 mph22%30.10 "Hg10 mi
5:15 pm54 °FSunny.8 mph24%30.10 "Hg10 mi
Weather by CustomWeather, © 2019

See weather overview